Location: Clover
(42.5131°N, 114.6874°W)
Time: 11:24:12
(UTC+00:00)

ARIANE 6 FM1 Upper Stage - Visible Passes

Search period start: 04 October 2024 00:00
Search period end: 14 October 2024 00:00
Orbit: 564 x 594 km, 62.0° (Epoch: 04 October)

Date Brightness Start Highest point End Pass type
(mag) Time Alt. Az. Time Alt. Az. Time Alt. Az.
04 Oct 5.4 01:39:10 10° NW 01:41:03 12° NNW 01:42:55 10° N visible
12 Oct 5.6 03:57:57 10° NNW 03:58:08 11° NNW 03:58:08 11° NNW visible
13 Oct 5.7 04:01:58 10° NNW 04:02:16 12° NNW 04:02:16 12° NNW visible
